[[{"header":{"parameterUnit":"m.s-1","parameterCategory":1,"la1":30.2991,"la2":30.254,"lo1":-89.0895,"lo2":-89.0444,"dy":0.0017,"dx":0.0017,"nx":28,"ny":28,"refTime":"2024-08-01T03:00:00:Z","depth":0,"parameterNumber":2,"parameterNumberName":"U-component_of_WINDS"},"data":[0,0,0,0,0,0,0,0,0,0,0,0,0,0,0,0,0,0,0,0,0,0,0,0,0,0,0,0,0,0,0,0,0,0,0,0,0,0,0,0,0,0,0,0,0,0,0,0,0,0,0,0,0,0,0,0,0,0,3.9681,3.9682,0,3.9766,3.9767,3.9768,3.968,3.9676,3.9673,3.967,3.9758,3.9764,3.9769,0,0,0,0,0,0,0,0,0,0,0,0,0,3.9444,3.9449,3.9681,3.9682,3.9683,3.9766,3.9767,3.9768,3.968,3.9676,3.9672,3.9668,3.9757,3.9763,3.977,0,0,0,0,0,0,0,0,0,0,0,0,0,3.954,3.9451,3.9681,3.965,3.9648,3.9765,3.9767,3.9768,3.9681,3.9676,3.9671,3.9666,3.9754,3.9762,3.9771,3.9924,0,0,3.9796,3.98,0,0,0,0,0,0,0,0,3.9535,3.9549,3.9653,3.9652,3.965,3.9707,3.9715,3.9821,3.9682,3.9669,3.9669,3.9664,3.9746,3.9754,3.9781,3.9929,3.9932,3.9797,3.9802,3.9805,3.9808,0,0,0,0,0,0,0,3.9528,3.9545,3.9715,3.9655,3.9653,3.9631,3.9639,3.9735,3.9735,3.9669,3.9663,3.9674,3.9744,3.9774,3.9783,3.9934,3.9797,3.9804,3.9809,3.9812,4.0208,4.0213,0,0,0,0,0,0,3.9525,3.954,3.9712,3.9717,3.9578,3.9639,3.9648,3.9694,3.9733,3.9734,3.9678,3.967,3.9762,3.9773,3.9786,3.9966,3.9805,3.9813,3.9818,4.0202,4.0209,4.0215,0,0,0,0,0,0,3.952,3.9541,3.9709,3.9627,3.9646,3.9649,3.9701,3.9698,3.9728,3.974,3.974,3.9709,3.9758,3.9774,3.9889,3.9968,3.9817,3.9824,4.0196,4.0204,4.0212,4.0329,0,0,0,0,0,0,3.9514,3.954,3.9599,3.9629,3.9651,3.9812,3.9706,3.9703,3.9742,3.9732,3.9769,3.977,3.9755,3.9878,3.9898,3.9976,3.9831,4.0189,4.0199,4.0209,4.0318,4.034,4.0359,0,0,0,0,0,3.9505,3.9629,3.9602,3.9623,3.9725,3.9816,3.9829,3.9809,3.9749,3.9807,3.9815,3.9769,3.9956,3.989,3.9912,3.9994,4.0184,4.0196,4.0208,4.0309,4.0336,4.0359,0,0,0,0,0,0,3.961,3.9633,3.9603,3.974,3.9777,3.9801,3.9875,3.9839,3.9894,3.9882,3.9855,3.9864,3.9986,4.0002,3.9928,4.0143,4.006,4.0077,4.0129,4.0154,4.0175,4.0168,3.9838,0,0,0,0,0,3.9649,3.9721,3.9737,3.9857,3.9877,3.9873,3.9912,3.9893,3.993,3.9946,3.9962,4.0,4.0067,4.0112,4.0174,4.032,4.0325,4.0387,4.0408,4.0424,4.0439,4.0515,4.0542,4.0255,4.0255,4.0255,0,0,3.973,3.9752,3.9799,3.9878,3.9905,3.998,3.9887,3.9971,4.0026,3.9959,4.0068,4.0081,4.0122,4.0252,4.0311,4.0269,4.052,4.044,4.0453,4.0459,4.053,4.0557,4.0581,4.0264,4.0262,4.0261,0,0,3.9916,3.9941,4.0041,4.0069,4.0109,4.0105,4.0129,4.0159,4.0164,4.0273,4.0223,4.0289,4.0406,4.0435,4.0466,4.0661,4.0619,4.0682,4.0789,4.0862,4.0885,4.0905,4.0972,4.0997,4.0697,4.0697,4.0698,0,4.0012,4.0123,4.0098,4.0185,4.022,4.0161,4.0262,4.029,4.035,4.0375,4.0328,4.047,4.0494,4.0629,4.0676,4.0704,4.0729,4.0677,4.0884,4.0903,4.0921,4.0985,4.1011,4.0704,4.0704,4.0703,4.0702,0,4.0238,4.0316,4.0392,4.0449,4.0493,4.0587,4.0575,4.0623,4.06,4.0601,4.0711,4.0737,4.0802,4.0833,4.0812,4.0965,4.0937,4.0888,4.0803,4.0956,4.1015,4.104,4.0715,4.0712,4.071,4.0708,0,0,4.0494,4.0533,4.0561,4.0585,4.0623,4.0683,4.0773,4.0836,4.0876,4.0918,4.0992,4.1091,4.1044,4.1079,4.106,4.1125,4.1274,4.1067,4.1067,4.1103,4.1441,4.1477,4.1506,4.1247,4.1252,4.1256,4.1437,0,4.0679,4.0834,4.0813,4.0963,4.1033,4.0976,4.1055,4.1086,4.1089,4.1149,4.1152,4.1221,4.1155,4.1175,4.1237,4.1243,4.1342,4.123,4.1315,4.1318,4.1305,4.1538,4.1577,4.1747,4.146,4.1464,4.1467,0,4.0916,4.0964,4.1121,4.1145,4.1174,4.1245,4.1299,4.1357,4.1391,4.1388,4.1426,4.1395,4.1484,4.1398,4.152,4.1444,4.1477,4.1485,4.1491,4.1498,4.1401,4.1549,4.1801,4.1826,4.1504,4.1501,4.1498,0,4.1084,4.1189,4.1294,4.1317,4.1349,4.14,4.1416,4.1445,4.1483,4.153,4.1554,4.1612,4.1643,4.1688,4.1673,4.1612,4.1797,4.1711,4.1797,4.1797,4.1838,4.1835,4.2097,4.1862,4.1862,4.1861,4.1861,0,4.1292,4.1389,4.137,4.1435,4.1541,4.1516,4.1622,4.1631,4.1657,4.1722,4.1678,4.174,4.1717,4.1777,4.1767,4.1867,4.1883,4.1882,4.1878,4.1885,4.1885,4.1906,4.1893,4.1868,4.1866,4.1865,4.1864,0,4.1497,4.1489,4.16,4.1621,4.1628,4.1705,4.1723,4.1783,4.1782,4.1865,4.1883,4.188,4.1949,4.1938,4.2016,4.2008,4.2133,4.2115,4.2121,4.2117,4.2202,4.2194,4.2486,4.2522,4.2265,4.2268,4.227,0,4.163,4.1703,4.1731,4.1771,4.179,4.1855,4.1893,4.187,4.1911,4.1954,4.2009,4.2073,4.2123,4.2236,4.2241,4.2299,4.2281,4.2379,4.2289,4.2294,4.228,4.2275,4.2281,4.2397,4.24,4.2402,4.2404,0,4.1866,4.1857,4.1913,4.1967,4.2013,4.2055,4.2092,4.2127,4.2107,4.2155,4.2224,4.2263,4.234,4.2404,4.2458,4.2473,4.2436,4.2432,4.2455,4.2463,4.2462,4.2461,4.2168,4.2426,4.2424,4.2422,4.2421,4.242,4.2038,4.2099,4.2127,4.219,4.2215,4.225,4.2307,4.2312,4.2368,4.2428,4.2412,4.2489,4.2519,4.2587,4.2608,4.2668,4.2632,4.2665,4.2673,4.2682,4.2691,4.2454,4.2678,4.2678,4.2677,4.2677,4.2676,0,4.2269,4.2284,4.2342,4.2394,4.2443,4.2402,4.2441,4.2484,4.2553,4.2584,4.2633,4.2711,4.2772,4.2781,4.2839,4.2885,4.2868,4.29,4.2896,4.29,4.2721,4.2695,4.2912,4.2912,4.2912,4.2912,4.2912,4.2912,4.2395,4.2495,4.249,4.2601,4.2615,4.269,4.2715,4.2747,4.2771,4.2859,4.2909,4.2914,4.2936,4.2994,4.3048,4.3048,4.3071,4.3109,4.3104,4.2936,4.2913,4.289,4.2865,4.3115,4.3115,4.3277,4.3278,4.328]},{"header":{"parameterUnit":"m.s-1","parameterCategory":1,"la1":30.2991,"la2":30.254,"lo1":-89.0895,"lo2":-89.0444,"dy":0.0017,"dx":0.0017,"nx":28,"ny":28,"refTime":"2024-08-01T03:00:00:Z","depth":0,"parameterNumber":3,"parameterNumberName":"V-component_of_WINDS"},"data":[0,0,0,0,0,0,0,0,0,0,0,0,0,0,0,0,0,0,0,0,0,0,0,0,0,0,0,0,0,0,0,0,0,0,0,0,0,0,0,0,0,0,0,0,0,0,0,0,0,0,0,0,0,0,0,0,0,0,4.4546,4.4547,0,4.4676,4.4677,4.4679,4.4667,4.4665,4.4664,4.4662,4.4792,4.4797,4.4802,0,0,0,0,0,0,0,0,0,0,0,0,0,4.4284,4.4289,4.4546,4.4548,4.4549,4.4676,4.4677,4.4679,4.4668,4.4665,4.4663,4.4661,4.479,4.4796,4.4803,0,0,0,0,0,0,0,0,0,0,0,0,0,4.4404,4.429,4.4546,4.4559,4.4561,4.4675,4.4677,4.468,4.4668,4.4665,4.4662,4.466,4.4788,4.4796,4.4803,4.4912,0,0,4.4828,4.4831,0,0,0,0,0,0,0,0,4.4397,4.4414,4.4555,4.4558,4.4561,4.4652,4.4633,4.4757,4.4669,4.4628,4.4662,4.4658,4.4748,4.4759,4.4789,4.4918,4.4923,4.4828,4.4833,4.4837,4.4839,0,0,0,0,0,0,0,4.4389,4.4408,4.4597,4.4557,4.4561,4.4557,4.4571,4.4656,4.4702,4.4631,4.463,4.4646,4.4749,4.4782,4.4792,4.4925,4.4828,4.4835,4.484,4.4843,4.5146,4.5149,0,0,0,0,0,0,4.4378,4.4401,4.4593,4.4601,4.447,4.4564,4.4579,4.4626,4.4702,4.471,4.4649,4.4645,4.477,4.4783,4.4797,4.4927,4.4837,4.4844,4.4849,4.5143,4.5147,4.515,0,0,0,0,0,0,4.4373,4.4395,4.4588,4.4501,4.4525,4.4572,4.4624,4.463,4.4663,4.4715,4.4723,4.4674,4.4768,4.4786,4.4883,4.4932,4.4848,4.4855,4.5139,4.5144,4.5149,4.5189,0,0,0,0,0,0,4.4365,4.4393,4.4436,4.4502,4.453,4.4673,4.4627,4.4635,4.4678,4.4674,4.4741,4.4749,4.4767,4.4871,4.4891,4.4941,4.4861,4.5135,4.5141,4.5147,4.5184,4.5195,4.5205,0,0,0,0,0,4.4356,4.4442,4.4439,4.4462,4.4585,4.4676,4.4692,4.4711,4.4682,4.4724,4.4757,4.4747,4.4923,4.4881,4.4903,4.4957,4.5132,4.514,4.5147,4.5179,4.5193,4.5204,0,0,0,0,0,0,4.4381,4.4451,4.4448,4.4559,4.4611,4.4674,4.4729,4.4725,4.4787,4.4781,4.4802,4.4817,4.4914,4.4945,4.4897,4.5064,4.5023,4.5035,4.504,4.5054,4.5064,4.5054,4.4868,0,0,0,0,0,4.4399,4.4469,4.4526,4.4618,4.4645,4.4682,4.4723,4.4733,4.4788,4.481,4.485,4.4903,4.497,4.5014,4.5078,4.5188,4.5201,4.5235,4.5246,4.5254,4.5264,4.5322,4.5338,4.5175,4.5175,4.5175,0,0,4.4438,4.4485,4.4528,4.4624,4.4667,4.4736,4.4701,4.4777,4.4829,4.4821,4.4916,4.4946,4.5006,4.511,4.5158,4.5139,4.5312,4.5263,4.527,4.5275,4.5331,4.5347,4.536,4.518,4.5179,4.5178,0,0,4.4544,4.4587,4.4668,4.4711,4.4775,4.4799,4.4818,4.4881,4.4901,4.4996,4.4992,4.5052,4.5168,4.521,4.5247,4.5367,4.536,4.5387,4.5441,4.5498,4.5511,4.5522,4.5563,4.5578,4.5397,4.5397,4.5397,0,4.4584,4.469,4.471,4.4786,4.4828,4.4825,4.4905,4.4946,4.5027,4.5055,4.5033,4.5177,4.5217,4.533,4.5359,4.5389,4.541,4.538,4.5508,4.5519,4.553,4.557,4.5585,4.54,4.54,4.54,4.5399,0,4.4735,4.4809,4.4866,4.4945,4.4993,4.5072,4.5101,4.5147,4.5153,4.5178,4.5274,4.5322,4.5395,4.5422,4.5429,4.5535,4.5521,4.5503,4.5463,4.5548,4.5585,4.5601,4.5404,4.5403,4.5402,4.5402,0,0,4.4862,4.495,4.497,4.5005,4.5075,4.5131,4.5208,4.5281,4.5319,4.5375,4.5439,4.5536,4.5519,4.556,4.5571,4.562,4.571,4.5596,4.5598,4.5614,4.5828,4.5841,4.5858,4.5706,4.5709,4.5711,4.5823,0,4.4974,4.5111,4.513,4.5251,4.5318,4.5315,4.5382,4.5431,4.5456,4.5515,4.5543,4.5611,4.5584,4.5609,4.5658,4.5689,4.5753,4.5681,4.5763,4.5766,4.5748,4.5878,4.5892,4.5996,4.5838,4.584,4.5842,0,4.5124,4.5184,4.5312,4.537,4.5399,4.5459,4.5525,4.5583,4.5637,4.5652,4.5698,4.5702,4.5779,4.5735,4.5841,4.5792,4.5826,4.5846,4.5851,4.5859,4.5809,4.5889,4.6029,4.6044,4.5865,4.5864,4.5862,0,4.5201,4.5314,4.5405,4.5435,4.5506,4.5548,4.5579,4.5631,4.5672,4.573,4.5757,4.5823,4.5858,4.5908,4.5929,4.5895,4.6033,4.5991,4.6046,4.6045,4.6075,4.6073,4.6222,4.6098,4.6098,4.6098,4.6098,0,4.5324,4.5402,4.544,4.5496,4.5582,4.5602,4.5687,4.5716,4.5762,4.5822,4.5823,4.5879,4.5903,4.5962,4.5979,4.6063,4.6079,4.6092,4.6095,4.6091,4.609,4.6114,4.6107,4.6102,4.6101,4.61,4.61,0,4.5426,4.5455,4.5553,4.5612,4.5628,4.5689,4.5739,4.5792,4.5816,4.5892,4.5911,4.5948,4.6018,4.6043,4.6128,4.6139,4.6235,4.6233,4.6217,4.6218,4.6271,4.6265,4.644,4.6464,4.6326,4.6327,4.6328,0,4.5502,4.5562,4.5627,4.5668,4.5701,4.5766,4.5808,4.5829,4.5873,4.5938,4.5983,4.6052,4.6109,4.6219,4.6253,4.6317,4.6316,4.6373,4.6325,4.6319,4.6315,4.6311,4.6316,4.6382,4.6383,4.6384,4.6385,0,4.5634,4.5645,4.5706,4.5773,4.5823,4.5876,4.5927,4.596,4.5988,4.6037,4.6108,4.6152,4.6238,4.6306,4.6371,4.6401,4.6398,4.64,4.6415,4.6412,4.64,4.6406,4.624,4.6396,4.6395,4.6394,4.6393,4.6393,4.5725,4.5777,4.583,4.5898,4.5939,4.5986,4.6038,4.6069,4.6129,4.6201,4.621,4.6286,4.6336,4.6424,4.6457,4.6515,4.65,4.6523,4.6528,4.6534,4.6537,4.6391,4.6527,4.6527,4.6527,4.6527,4.6526,0,4.5855,4.5889,4.5952,4.6023,4.6076,4.6068,4.6124,4.6168,4.6235,4.6284,4.6339,4.642,4.6485,4.6524,4.6589,4.6628,4.6628,4.6644,4.6641,4.6648,4.6548,4.6527,4.6643,4.6643,4.6643,4.6643,4.6643,4.6643,4.593,4.6017,4.6034,4.6141,4.6174,4.6249,4.6281,4.6324,4.6362,4.6453,4.6508,4.6532,4.6576,4.6644,4.6703,4.6712,4.6736,4.6754,4.6761,4.6667,4.6655,4.6644,4.6624,4.6759,4.6759,4.6856,4.6857,4.6858]}]]